GW1791 Weather Reports


time (UTC)temp
F
wind
direction
speed
knots
gust
knots
rain 1hr
in
rain 24hr
in
rain mn
in
humidity
%
barometer
mb
20260906174937 73 66 0.0 0.0 0.00 0.00 0.00 90 1020.2
20260906174432 73 155 0.0 0.0 0.00 0.00 0.00 89 1020.4
20260906173927 73 187 0.0 0.0 0.00 0.00 0.00 89 1020.4
20260906173422 73 128 0.0 0.9 0.00 0.00 0.00 89 1020.5
20260906172921 73 127 0.0 0.0 0.00 0.00 0.00 89 1020.6
20260906172418 73 145 0.0 1.7 0.00 0.00 0.00 89 1020.6
20260906171913 73 148 0.0 0.0 0.00 0.00 0.00 88 1020.4
20260906171407 73 183 0.0 0.0 0.00 0.00 0.00 89 1020.5
20260906170903 73 206 0.0 0.0 0.00 0.00 0.00 89 1020.4
20260906170359 74 210 0.9 1.7 0.00 0.00 0.00 89 1020.6
20260906165856 74 197 0.0 1.7 0.00 0.00 0.00 88 1020.7
20260906165355 74 181 0.0 0.0 0.00 0.00 0.00 88 1020.5
20260906164850 74 164 0.0 0.0 0.00 0.00 0.00 88 1020.7
20260906164349 74 199 0.0 0.0 0.00 0.00 0.00 89 1020.4
20260906163845 74 140 0.0 0.0 0.00 0.00 0.00 88 1020.4
20260906163341 74 122 0.0 0.0 0.00 0.00 0.00 88 1020.3
20260906162839 73 216 0.0 0.0 0.00 0.00 0.00 88 1020.4
20260906162337 74 191 0.0 0.0 0.00 0.00 0.00 87 1020.2
20260906161833 73 213 0.0 0.0 0.00 0.00 0.00 88 1020.3
20260906161332 74 161 0.0 0.9 0.00 0.00 0.00 87 1020.2
20260906160831 74 193 0.0 0.0 0.00 0.00 0.00 87 1020.3
20260906160325 74 173 0.0 1.7 0.00 0.00 0.00 87 1020.2
20260906155823 74 161 0.0 0.0 0.00 0.00 0.00 88 1020.5
20260906155317 73 197 0.0 0.9 0.00 0.00 0.00 89 1020.3
20260906154814 72 114 0.0 0.0 0.00 0.00 0.00 91 1020.3
20260906154308 72 169 0.0 0.0 0.00 0.00 0.00 92 1020.4
20260906153806 72 164 0.0 0.0 0.00 0.00 0.00 92 1020.4
20260906153300 71 150 0.0 0.0 0.00 0.00 0.00 92 1020.3
20260906152756 71 98 0.0 0.9 0.00 0.00 0.00 92 1020.5
20260906152251 71 185 0.0 0.0 0.00 0.00 0.00 92 1020.5
20260906151750 71 181 0.0 1.7 0.00 0.00 0.00 92 1020.5
20260906151246 71 183 0.0 0.0 0.00 0.00 0.00 92 1020.5
20260906150741 71 182 0.0 0.0 0.00 0.00 0.00 92 1020.7
20260906150237 71 170 0.0 0.0 0.00 0.00 0.00 93 1020.4
20260906145736 70 119 0.0 0.0 0.00 0.00 0.00 94 1020.5
20260906145234 70 144 0.0 0.0 0.00 0.00 0.00 94 1020.7
20260906144730 70 157 0.0 1.7 0.00 0.00 0.00 94 1020.6
20260906144225 70 117 0.0 0.0 0.00 0.00 0.00 94 1020.6
20260906143724 71 164 0.0 0.0 0.00 0.00 0.00 94 1020.6
20260906143222 69 156 0.0 0.0 0.00 0.00 0.00 96 1020.6
20260906142721 69 177 0.0 0.0 0.00 0.00 0.00 97 1020.7
20260906142216 68 171 0.0 0.0 0.00 0.00 0.00 97 1020.7
20260906141715 68 177 0.0 0.0 0.00 0.00 0.00 99 1020.8
20260906141210 68 137 0.0 0.0 0.00 0.00 0.00 99 1020.7
20260906140709 68 176 0.0 0.0 0.00 0.00 0.00 99 1020.8
20260906140205 68 171 0.0 0.0 0.00 0.00 0.00 99 1020.7
20260906135701 68 193 0.0 0.0 0.00 0.00 0.00 99 1020.7
20260906135157 68 199 0.0 0.0 0.00 0.00 0.00 99 1020.5
20260906134652 67 125 0.0 0.0 0.00 0.00 0.00 99 1020.6
20260906134142 67 125 0.0 0.0 0.00 0.00 0.00 99 1020.5
20260906133638 67 216 0.0 0.0 0.00 0.00 0.00 99 1020.5
20260906133137 67 170 0.0 0.0 0.00 0.00 0.00 99 1020.2
20260906132633 67 138 0.0 0.0 0.00 0.00 0.00 99 1020.2
20260906132129 67 185 0.0 0.0 0.00 0.00 0.00 99 1020.1
20260906131624 67 157 0.0 0.0 0.00 0.00 0.00 99 1020.1
20260906131119 67 175 0.0 0.0 0.00 0.00 0.00 99 1020.1
20260906130614 67 183 0.0 0.0 0.00 0.00 0.00 99 1020.0
20260906130109 67 178 0.0 0.0 0.00 0.00 0.00 99 1019.9
20260906125601 67 192 0.0 0.0 0.00 0.00 0.00 99 1019.9
20260906125100 67 184 0.0 0.0 0.00 0.00 0.00 99 1019.8
20260906124556 66 175 0.0 0.0 0.00 0.00 0.00 99 1019.9
20260906124051 67 165 1.7 4.3 0.00 0.00 0.00 99 1019.8
20260906123550 66 95 0.0 0.9 0.00 0.00 0.00 99 1019.8
20260906123045 66 140 0.0 0.9 0.00 0.00 0.00 99 1019.8
20260906122544 66 90 0.0 0.0 0.00 0.00 0.00 99 1019.5
20260906122041 66 68 0.0 0.0 0.00 0.00 0.00 99 1019.7
20260906121536 66 145 0.0 0.0 0.00 0.00 0.00 99 1019.6
20260906121033 66 67 0.0 0.0 0.00 0.00 0.00 99 1019.7
20260906120528 66 68 0.0 0.0 0.00 0.00 0.00 99 1019.6
20260906120025 66 106 0.0 0.0 0.00 0.00 0.00 99 1019.6
20260906115525 66 88 0.0 0.0 0.00 0.00 0.00 99 1019.4
20260906115020 66 91 0.0 0.0 0.00 0.00 0.00 99 1019.5
20260906114514 66 82 0.0 0.0 0.00 0.00 0.00 99 1019.3
20260906114010 66 117 0.0 0.0 0.00 0.00 0.00 99 1019.3
20260906113509 67 114 0.0 0.0 0.00 0.00 0.00 99 1019.4
20260906113004 67 99 0.0 0.0 0.00 0.00 0.00 99 1019.2
20260906112459 67 121 0.0 0.0 0.00 0.00 0.00 99 1019.1
20260906111955 67 185 0.0 0.0 0.00 0.00 0.00 99 1019.3
20260906111454 67 157 0.0 0.0 0.00 0.00 0.00 99 1019.3
20260906110949 67 185 0.0 0.0 0.00 0.00 0.00 99 1019.3
20260906110445 67 115 0.0 0.0 0.00 0.00 0.00 99 1019.2
20260906105944 67 136 0.0 0.0 0.00 0.00 0.00 99 1019.2
20260906105440 67 149 0.0 0.0 0.00 0.00 0.00 99 1019.3
20260906104936 67 147 0.0 0.0 0.00 0.00 0.00 99 1019.0
20260906104434 67 159 0.0 0.0 0.00 0.00 0.00 99 1018.8
20260906103933 67 91 0.0 0.0 0.00 0.00 0.00 99 1019.0
20260906103432 67 118 0.0 0.0 0.00 0.00 0.00 99 1019.0
20260906102927 67 102 0.0 0.0 0.00 0.00 0.00 99 1019.0
20260906102427 67 164 0.0 0.0 0.00 0.00 0.00 99 1019.0
20260906101921 67 163 0.0 0.0 0.00 0.00 0.00 99 1019.0
20260906101417 67 129 0.0 0.0 0.00 0.00 0.00 99 1019.0
20260906100912 67 177 0.0 0.0 0.00 0.00 0.00 99 1018.8
20260906100412 67 122 0.0 0.0 0.00 0.00 0.00 99 1019.1
20260906095906 67 155 0.0 0.0 0.00 0.00 0.00 99 1018.8
20260906095402 68 113 0.0 0.0 0.00 0.00 0.00 99 1018.7
20260906094856 68 175 0.0 0.0 0.00 0.00 0.00 99 1018.6
20260906094351 68 194 0.0 0.0 0.00 0.00 0.00 99 1018.5
20260906093847 68 118 0.0 0.0 0.00 0.00 0.00 99 1018.4
20260906093343 68 84 0.0 0.0 0.00 0.00 0.00 99 1018.2
20260906092837 68 86 0.0 0.0 0.00 0.00 0.00 99 1018.2
20260906092331 68 136 0.0 0.0 0.00 0.00 0.00 99 1018.0
20260906091827 68 123 0.0 0.0 0.00 0.00 0.00 99 1018.1
20260906091323 68 140 0.0 0.0 0.00 0.00 0.00 99 1018.2
20260906090820 68 104 0.0 0.9 0.00 0.00 0.00 99 1017.8
20260906090318 68 143 0.0 0.0 0.00 0.00 0.00 99 1017.9
20260906085813 68 80 0.0 0.0 0.00 0.00 0.00 99 1018.0
20260906085311 68 120 0.0 0.0 0.00 0.00 0.00 99 1018.0
20260906084807 68 76 0.0 0.0 0.00 0.00 0.00 99 1018.1
20260906084306 68 96 0.0 0.0 0.00 0.00 0.00 99 1017.9
20260906083801 68 136 0.0 0.0 0.00 0.00 0.00 99 1018.1
20260906083257 68 86 0.0 0.0 0.00 0.00 0.00 99 1018.0
20260906082751 68 62 0.0 0.0 0.00 0.00 0.00 99 1017.9
20260906082246 68 101 0.0 0.0 0.00 0.00 0.00 99 1017.9
20260906081742 68 111 0.0 0.0 0.00 0.00 0.00 99 1017.9
20260906081238 68 137 0.0 0.0 0.00 0.00 0.00 99 1018.0
20260906080734 68 131 0.0 0.0 0.00 0.00 0.00 99 1018.0
20260906080230 68 90 0.0 0.0 0.00 0.00 0.00 99 1018.1
20260906075724 68 77 0.0 0.0 0.00 0.00 0.00 99 1018.0
20260906075224 68 93 0.0 0.0 0.00 0.00 0.00 99 1017.9
20260906074719 68 84 0.0 0.0 0.00 0.00 0.00 99 1018.0
20260906074218 68 100 0.0 0.0 0.00 0.00 0.00 99 1018.1
20260906073713 68 76 0.0 0.0 0.00 0.00 0.00 99 1018.3
20260906073208 68 59 0.0 0.0 0.00 0.00 0.00 99 1018.2
20260906072704 68 128 0.0 0.0 0.00 0.00 0.00 99 1018.1
20260906072159 68 124 0.0 0.0 0.00 0.00 0.00 99 1018.2
20260906071655 68 73 0.0 0.0 0.00 0.00 0.00 99 1018.5
20260906071154 68 75 0.0 0.0 0.00 0.00 0.00 99 1018.4
20260906070652 68 93 0.0 0.0 0.00 0.00 0.00 99 1018.4
20260906070147 68 66 0.0 0.0 0.00 0.00 0.00 99 1018.4
20260906065646 68 73 0.0 0.0 0.00 0.00 0.00 99 1018.5
20260906065142 69 98 0.0 0.0 0.00 0.00 0.00 99 1018.5
20260906064638 69 93 0.0 0.0 0.00 0.00 0.00 99 1018.5
20260906064133 69 68 0.0 0.0 0.00 0.00 0.00 99 1018.6
20260906063628 69 123 0.0 0.0 0.00 0.00 0.00 99 1018.4
20260906063124 69 93 0.0 0.0 0.00 0.00 0.00 99 1018.7
20260906062619 69 63 0.0 0.0 0.00 0.00 0.00 99 1018.6
20260906062118 69 60 0.0 0.0 0.00 0.00 0.00 99 1018.8
20260906061615 69 85 0.0 0.0 0.00 0.00 0.00 99 1018.8
20260906061114 69 57 0.0 0.0 0.00 0.00 0.00 99 1018.7
20260906060611 69 89 0.0 0.0 0.00 0.00 0.00 99 1018.6
20260906060108 69 62 0.0 0.0 0.00 0.00 0.00 99 1018.6
20260906055603 69 64 0.0 0.0 0.00 0.00 0.00 99 1018.8
20260906055058 69 51 0.0 0.0 0.00 0.00 0.00 99 1018.7
20260906054558 69 79 0.0 0.0 0.00 0.00 0.00 99 1018.8
20260906054054 69 48 0.0 0.0 0.00 0.00 0.00 99 1018.7
20260906053550 69 69 0.0 0.0 0.00 0.00 0.00 99 1018.6
20260906053045 69 57 0.0 0.0 0.00 0.00 0.00 99 1018.6
20260906052541 69 54 0.0 0.0 0.00 0.00 0.00 99 1018.5
20260906052038 69 63 0.0 0.0 0.00 0.00 0.00 99 1018.6
20260906051533 69 53 0.0 0.0 0.00 0.00 0.00 99 1018.4
20260906051028 69 56 0.0 0.0 0.00 0.00 0.00 99 1018.2
20260906050523 69 88 0.0 0.0 0.00 0.00 0.00 99 1018.2
20260906050018 69 59 0.0 0.0 0.00 0.00 0.00 99 1018.4
20260906045516 69 62 0.0 0.0 0.00 0.00 0.00 99 1018.7
20260906045012 69 56 0.0 0.0 0.00 0.00 0.00 99 1018.3
20260906044508 69 52 0.0 0.0 0.00 0.00 0.00 99 1018.5
20260906044003 69 46 0.0 0.0 0.00 0.00 0.00 99 1018.4
20260906043459 69 71 0.0 0.0 0.00 0.00 0.00 99 1018.4
20260906042955 69 58 0.0 0.0 0.00 0.00 0.00 99 1018.5
20260906042453 69 60 0.0 0.0 0.00 0.00 0.00 99 1018.5
20260906041953 69 51 0.0 0.0 0.00 0.00 0.00 99 1018.3
20260906041450 69 55 0.0 0.0 0.00 0.00 0.00 99 1018.4
20260906040949 69 52 0.0 0.0 0.00 0.00 0.00 99 1018.2
20260906040444 69 47 0.0 0.0 0.00 0.00 0.00 99 1018.4
20260906035939 70 52 0.0 0.0 0.00 0.00 0.00 99 1018.2
20260906035435 70 68 0.0 0.0 0.00 0.00 0.00 99 1018.3
20260906034930 70 74 0.0 0.0 0.00 0.00 0.00 99 1018.1
20260906034425 70 45 0.0 0.0 0.00 0.00 0.00 99 1018.3
20260906033920 71 45 0.0 0.0 0.00 0.00 0.00 99 1018.3
20260906033415 71 45 0.0 0.0 0.00 0.00 0.00 99 1018.3
20260906032911 71 45 0.0 0.0 0.00 0.00 0.00 99 1018.3
20260906032407 71 45 0.0 0.0 0.00 0.00 0.00 99 1018.2
20260906031901 71 45 0.0 0.0 0.00 0.00 0.00 99 1018.2
20260906031356 71 45 0.0 0.0 0.00 0.00 0.00 99 1018.0
20260906030851 71 45 0.0 0.0 0.00 0.00 0.00 99 1017.9
20260906030346 71 45 0.0 0.0 0.00 0.00 0.00 99 1017.9
20260906025841 71 45 0.0 0.0 0.00 0.00 0.00 99 1018.0
20260906025335 72 45 0.0 0.0 0.00 0.00 0.00 99 1017.8
20260906024834 71 45 0.0 0.0 0.00 0.00 0.00 99 1017.9
20260906024333 71 45 0.0 0.0 0.00 0.00 0.00 99 1017.8
20260906023829 72 44 0.0 0.0 0.00 0.00 0.00 99 1017.7
20260906023325 72 43 0.0 0.0 0.00 0.00 0.00 99 1017.7
20260906022820 72 44 0.0 0.0 0.00 0.00 0.00 99 1017.7
20260906022315 72 55 0.0 0.0 0.00 0.00 0.00 99 1017.7
20260906021811 72 72 0.0 0.0 0.00 0.00 0.00 99 1017.5
20260906021310 72 75 0.0 0.0 0.00 0.00 0.00 99 1017.6
20260906020804 72 75 0.0 0.0 0.00 0.00 0.00 99 1017.6
20260906020304 72 146 0.0 0.0 0.00 0.00 0.00 99 1017.5
20260906015759 72 87 0.0 0.0 0.00 0.00 0.00 99 1017.6
20260906015257 72 91 0.0 0.0 0.00 0.00 0.00 99 1017.3
20260906014752 72 103 0.0 0.0 0.00 0.00 0.00 99 1017.2
20260906014248 72 112 0.0 0.0 0.00 0.00 0.00 99 1017.0
20260906013744 72 114 0.0 0.0 0.00 0.00 0.00 99 1017.1
20260906013243 72 125 0.0 0.0 0.00 0.00 0.00 99 1016.9
20260906012739 72 125 0.0 0.0 0.00 0.00 0.00 99 1017.0
20260906012234 73 125 0.0 0.0 0.00 0.00 0.00 98 1016.9
20260906011729 73 125 0.0 0.0 0.00 0.00 0.00 98 1016.7
20260906011229 73 125 0.0 0.0 0.00 0.00 0.00 98 1016.6
20260906010724 73 125 0.0 0.0 0.00 0.00 0.00 98 1016.6
20260906010220 73 125 0.0 0.0 0.00 0.00 0.00 97 1016.7
20260906005715 74 125 0.0 0.0 0.00 0.00 0.00 97 1016.5
20260906005214 74 125 0.0 0.0 0.00 0.00 0.00 97 1016.5
20260906004713 74 125 0.0 0.0 0.00 0.00 0.00 96 1016.4
20260906004209 74 125 0.0 0.0 0.00 0.00 0.00 96 1016.5
20260906003704 74 125 0.0 0.0 0.00 0.00 0.00 96 1016.4
20260906003159 75 125 0.0 0.0 0.00 0.00 0.00 95 1016.3
20260906002654 75 125 0.0 0.0 0.00 0.00 0.00 95 1016.5
20260906002148 75 125 0.0 0.0 0.00 0.00 0.00 94 1016.3
20260906001644 75 125 0.0 0.0 0.00 0.00 0.00 94 1016.4
20260906001144 75 125 0.0 0.0 0.00 0.00 0.00 94 1016.4
20260906000639 75 125 0.0 0.0 0.00 0.00 0.00 94 1016.1
20260906000135 75 125 0.0 0.0 0.00 0.00 0.00 94 1016.1
20260905235633 75 126 0.0 0.0 0.00 0.00 0.00 93 1016.2
20260905235129 76 138 0.0 0.0 0.00 0.00 0.00 93 1016.2
20260905234624 76 136 0.0 0.0 0.00 0.00 0.00 93 1016.2
20260905234119 76 153 0.0 0.0 0.00 0.00 0.00 93 1016.0
20260905233614 76 109 0.0 0.0 0.00 0.00 0.00 92 1015.8
20260905233108 76 130 0.0 0.0 0.00 0.00 0.00 92 1016.1
20260905232604 76 127 0.0 0.0 0.00 0.00 0.00 91 1016.0
20260905232059 77 78 0.0 0.0 0.00 0.00 0.00 91 1016.0
20260905231554 77 76 0.0 0.0 0.00 0.00 0.00 91 1016.0
20260905231051 77 86 0.0 0.0 0.00 0.00 0.00 90 1016.0
20260905230550 77 93 0.0 0.9 0.00 0.00 0.00 91 1015.6
20260905230048 77 127 0.0 0.0 0.00 0.00 0.00 91 1015.5
20260905225537 78 132 0.0 0.0 0.00 0.00 0.00 91 1015.6
20260905225032 78 76 0.0 0.9 0.00 0.00 0.00 91 1015.5
20260905224527 78 71 0.0 0.0 0.00 0.00 0.00 90 1015.5
20260905224026 78 113 0.0 0.0 0.00 0.00 0.00 90 1015.6
20260905223524 78 164 0.0 0.0 0.00 0.00 0.00 90 1015.7
20260905223019 78 134 0.0 0.0 0.00 0.00 0.00 90 1015.8
20260905222514 78 123 0.0 0.0 0.00 0.00 0.00 89 1015.8
20260905222009 78 65 0.0 0.0 0.00 0.00 0.00 89 1015.8
20260905221506 78 51 0.0 0.0 0.00 0.00 0.00 89 1015.7
20260905221002 78 95 0.0 0.9 0.00 0.00 0.00 89 1015.6
20260905220457 78 93 0.0 0.0 0.00 0.00 0.00 89 1015.6
20260905215956 78 66 0.0 0.0 0.00 0.00 0.00 89 1015.7
20260905215452 78 91 0.0 0.0 0.00 0.00 0.00 89 1015.6
20260905214948 78 110 0.0 0.0 0.00 0.00 0.00 89 1015.6
20260905214444 78 46 0.9 2.6 0.00 0.00 0.00 89 1015.6
20260905213944 78 131 0.0 1.7 0.00 0.00 0.00 90 1015.6
20260905213440 78 123 0.0 0.9 0.00 0.00 0.00 91 1015.5
20260905212935 78 82 0.0 0.9 0.00 0.00 0.00 90 1015.8
20260905212430 78 111 0.0 0.0 0.00 0.00 0.00 90 1015.7
20260905211929 78 78 0.0 1.7 0.00 0.00 0.00 90 1016.0
20260905211425 78 99 0.0 1.7 0.00 0.00 0.00 90 1015.8
20260905210921 78 97 0.0 0.0 0.00 0.00 0.00 90 1016.2
20260905210420 78 90 0.9 1.7 0.00 0.00 0.00 89 1016.1
20260905205920 78 54 0.0 1.7 0.00 0.00 0.00 89 1016.2
20260905205415 78 60 0.0 0.0 0.00 0.00 0.00 90 1016.3
20260905204914 78 97 0.0 0.0 0.00 0.00 0.00 89 1016.5
20260905204410 78 67 0.0 0.9 0.00 0.00 0.00 89 1016.4
20260905203909 78 76 0.0 0.9 0.00 0.00 0.00 89 1016.6
20260905203404 78 102 0.0 0.0 0.00 0.00 0.00 89 1016.7
20260905202900 79 188 0.0 0.0 0.00 0.00 0.00 88 1016.8
20260905202355 78 128 0.0 0.0 0.00 0.00 0.00 89 1016.6
20260905201851 78 153 0.9 1.7 0.00 0.00 0.00 90 1016.5
20260905201346 77 61 0.9 2.6 0.00 0.00 0.00 90 1016.3
20260905200846 78 60 1.7 4.3 0.00 0.00 0.00 91 1016.3
20260905200342 77 63 5.2 7.8 0.00 0.00 0.00 91 1016.3
20260905195840 76 60 5.2 6.1 0.00 0.00 0.00 92 1016.2
20260905195335 76 76 0.9 1.7 0.00 0.00 0.00 93 1016.4
20260905194831 76 48 4.3 6.1 0.00 0.00 0.00 93 1016.5
20260905194325 76 69 4.3 5.2 0.00 0.00 0.00 93 1016.7
20260905193824 76 59 4.3 5.2 0.00 0.00 0.00 94 1016.7
20260905193319 76 79 3.5 5.2 0.00 0.00 0.00 94 1016.9
20260905192815 76 61 4.3 5.2 0.00 0.00 0.00 94 1017.2
20260905192311 76 64 2.6 4.3 0.00 0.00 0.00 95 1017.4
20260905191810 75 79 6.1 7.0 0.00 0.00 0.00 95 1017.6
20260905191308 76 44 3.5 5.2 0.00 0.00 0.00 95 1017.5
20260905190807 76 81 6.1 7.8 0.00 0.00 0.00 95 1017.6
20260905190307 76 46 2.6 4.3 0.00 0.00 0.00 96 1017.8
20260905185806 75 19 3.5 5.2 0.00 0.00 0.00 96 1017.9
20260905185300 75 48 2.6 2.6 0.00 0.00 0.00 96 1018.0
20260905184755 75 53 3.5 5.2 0.00 0.00 0.00 97 1017.9
20260905184253 74 74 1.7 2.6 0.00 0.00 0.00 97 1018.2
20260905183747 74 50 4.3 6.1 0.00 0.00 0.00 97 1018.1
20260905183243 74 12 3.5 4.3 0.00 0.00 0.00 97 1018.0
20260905182742 74 37 4.3 5.2 0.00 0.00 0.00 97 1017.9
20260905182242 74 34 4.3 5.2 0.00 0.00 0.00 98 1017.9
20260905181737 74 75 4.3 5.2 0.00 0.00 0.00 98 1018.1
20260905181236 74 76 2.6 2.6 0.00 0.00 0.00 98 1018.1
20260905180731 74 77 4.3 5.2 0.00 0.00 0.00 98 1018.1
20260905180226 74 77 3.5 4.3 0.00 0.00 0.00 97 1017.9
20260905175721 74 44 2.6 2.6 0.00 0.00 0.00 97 1018.2
20260905175215 74 25 3.5 5.2 0.00 0.00 0.00 98 1018.1